#timestamp,LO_Frequency,Hit,StdDev 
1514620815.1,286046995.2,P
1514620816.0,286046995.2,N
1514620835.8,286046995.7,N
1514620855.6,286046999.4,N
1514620875.5,286046999.4,N
1514620895.3,286046999.2,N
1514620915.2,286046997.4,N
1514620935.0,286046998.7,N
1514620935.9,286046998.7,N
1514620955.7,286046999.3,N
1514620975.6,286046999.4,N
1514620995.4,286046996.6,N
1514621015.3,286047001.2,N
1514621035.1,286047002.7,N
1514621036.0,286047002.7,N
1514621055.8,286047002.4,N
1514621075.7,286047000.3,N
1514621095.5,286046996.6,N
1514621115.4,286046995.2,N
1514621135.2,286046995.9,N
1514621155.0,286046995.2,N
1514621155.9,286046995.2,N
1514621175.8,286046996.5,N
1514621195.6,286047000.9,N
1514621215.5,286046999.1,N
1514621235.3,286046998.7,N
1514621255.1,286046999.1,N
1514621275.9,286047001.0,N
1514621295.7,286047000.4,N
1514621315.6,286047001.0,N
1514621335.4,286047001.0,N
1514621355.2,286046998.8,N
1514621375.1,286047000.8,N
1514621376.0,286047000.8,N
1514621395.8,286046999.1,N
1514621415.6,286046996.9,N
1514621435.5,286046998.9,N
1514621455.3,286046996.5,N
1514621475.2,286046996.9,N
1514621495.9,286046997.2,N
1514621515.7,286046998.9,N
1514621535.6,286046999.7,N
1514621555.4,286047000.2,N
1514621575.3,286046999.9,N
1514621595.1,286047002.7,N
1514621596.0,286047002.7,N
1514621615.8,286047002.5,N
1514621635.7,286047000.7,N
1514621655.5,286046998.5,N
1514621675.4,286047000.5,N
1514621695.2,286047000.2,N
1514621715.0,286046998.1,N
1514621715.9,286046998.1,N
1514621735.8,286046998.6,N
1514621755.6,286047000.0,N
1514621775.4,286046998.6,N
1514621795.3,286047001.2,N
1514621815.1,286047000.0,N
1514621835.9,286047002.4,N
1514621855.7,286047001.5,N
1514621875.5,286047000.3,N
1514621895.4,286047002.2,N
1514621915.2,286047005.6,Y
1514621935.1,286047005.0,P
1514621936.0,286047005.0,N
1514621955.8,286047005.3,N
1514621975.6,286047001.3,N
1514621995.5,286047006.0,N
1514622015.3,286047005.1,N
1514622035.1,286047001.9,N
1514622055.9,286047002.7,N
1514622075.7,286046999.8,N
1514622095.6,286047000.0,N
1514622115.4,286047001.6,N
1514622135.2,286047003.9,N
1514622155.1,286047005.1,N
1514622156.0,286047005.1,N
1514622175.8,286047005.4,N
1514622195.7,286047005.8,N
1514622215.5,286047002.6,N
1514622235.3,286047001.0,N
1514622255.2,286046999.7,N
1514622275.9,286047001.9,N
1514622295.7,286047000.2,N
1514622315.6,286047001.2,N
1514622335.4,286046999.2,N
1514622355.3,286046998.9,N
1514622375.1,286047000.9,N
1514622376.0,286047000.9,N
1514622395.8,286047002.0,N
1514622415.7,286047002.0,N
1514622435.5,286047003.2,N
1514622455.3,286047004.0,N
1514622475.2,286047000.1,N
1514622495.0,286046998.7,N
1514622495.9,286046998.7,N
1514622515.8,286047000.5,N
1514622535.6,286046999.8,N
1514622555.4,286047000.1,N
1514622575.3,286047001.8,N
1514622595.1,286047001.3,N
1514622615.9,286047003.8,N
1514622635.7,286047002.5,N
1514622655.5,286047000.7,N
1514622675.4,286047001.2,N
1514622695.2,286046998.6,N
1514622715.0,286047002.5,N
1514622716.0,286047002.5,N
1514622735.8,286047001.4,N
1514622755.6,286047005.5,Y
1514622775.5,286047003.5,P
1514622795.3,286047002.0,N
1514622815.1,286047000.6,N
1514622835.9,286047002.2,N
1514622855.7,286047003.5,Y
1514622875.6,286047000.5,P
1514622895.4,286047001.3,N
1514622915.2,286047003.1,P
1514622935.1,286047005.4,Y
1514622936.0,286047005.4,P
1514622955.8,286047004.1,N
1514622975.7,286047003.8,N
1514622995.5,286047003.7,N
1514623015.3,286047005.3,Y
1514623035.2,286047000.1,P
1514623055.0,286046998.9,N
1514623055.9,286046998.9,N
1514623075.8,286046995.6,N
1514623095.6,286046996.1,N
1514623115.4,286046992.2,N
1514623135.3,286046992.4,N
1514623155.1,286046992.6,N
1514623175.8,286046991.0,N
1514623195.7,286046991.2,N
1514623215.5,286046987.5,Y
1514623235.4,286046993.0,P
1514623255.2,286046994.3,P
1514623275.0,286046994.7,P
1514623276.0,286046994.7,Y
1514623295.8,286047002.4,P
1514623315.6,286046999.2,N
1514623335.5,286046996.6,N
1514623355.3,286046997.7,N
1514623375.1,286046998.8,N
1514623395.9,286047000.5,N
1514623415.7,286046999.2,N
1514623435.6,286046995.1,N
1514623455.4,286046997.1,N
1514623475.2,286047002.8,N
1514623495.1,286046999.7,N
1514623496.0,286046999.7,N
1514623515.8,286046999.9,N
1514623535.7,286046999.8,N
1514623555.5,286047000.0,N
1514623575.3,286046999.8,N
1514623595.2,286047001.6,N
1514623615.0,286047003.9,N
1514623615.9,286047003.9,N
1514623635.7,286047003.7,N
1514623655.6,286047002.9,N
1514623675.4,286047003.8,N
1514623695.3,286047003.3,N
1514623715.1,286047004.6,N
1514623735.8,286047003.8,N
1514623755.7,286047004.3,N
1514623775.5,286047003.3,N
1514623795.4,286047004.7,N
1514623815.2,286047005.7,N
1514623835.0,286047004.0,N
1514623835.9,286047004.0,N
1514623855.8,286047005.6,N
1514623875.6,286047003.3,N
1514623895.5,286047003.4,N
1514623915.3,286047003.0,N
1514623935.1,286047001.9,N
1514623955.9,286047001.9,N
1514623975.7,286047002.3,N
1514623995.5,286047002.5,N
1514624015.4,286047001.4,N
1514624035.2,286047004.2,N
1514624055.1,286047003.3,N
1514624056.0,286047003.3,N
1514624075.8,286047001.4,N
1514624095.6,286047002.1,N
1514624115.5,286047001.9,N
1514624135.3,286047001.0,N
1514624155.2,286047000.6,N
1514624175.9,286047001.0,N
1514624195.7,286047000.3,N
1514624215.6,286046998.4,N
1514624235.4,286046999.9,N
1514624255.2,286046999.9,N
1514624275.1,286046999.7,N
1514624276.0,286046999.7,N
1514624295.8,286047001.3,N
1514624315.7,286047001.7,N
1514624335.5,286047001.0,N
1514624355.3,286046998.3,N
1514624375.2,286046998.3,N
1514624395.0,286046998.5,N
1514624395.9,286046998.5,N
